Regional Weather Roundup
Issued by NWS

Home | Current Version | Previous Version | Text Only | Print | Product List | Glossary On
Versions: 1 2 3 4 5 6 7 8 9 10 11 12 13 14 15 16 17 18 19 20 21 22 23 24 25 26 27 28 29 30 31 32 33 34 35 36 37 38 39 40 41 42 43 44 45 46 47 48 49 50
000
ASUS44 KFWD 271615
RWRTX
NORTH TEXAS HOURLY WEATHER ROUNDUP
NATIONAL WEATHER SERVICE FORT WORTH TX
1000 AM CST MON FEB 27 2017

NOTE: "FAIR" INDICATES FEW OR NO CLOUDS BELOW 12,000 FEET WITH NO
SIGNIFICANT WEATHER AND/OR OBSTRUCTIONS TO VISIBILITY.

TXZ118-119-271700-
DALLAS/FORT WORTH METROPLEX

CITY           SKY/WX    TMP DP  RH WIND       PRES   REMARKS
DFW AIRPORT    CLOUDY    68  64  87 S9        29.95S FOG
DALLAS LOVE    PTSUNNY   69  62  78 SE10      29.96S
FTW MEACHAM    CLOUDY    70  63  78 S14       29.95S
DAL-EXECUTIVE  MOSUNNY   71  64  78 S9        29.96S
FTW-ALLIANCE   CLOUDY    68  63  84 S10       29.95S
FTW-NAS-JRB    CLOUDY    69  64  84 S16       29.96S
FTW-SPINKS     PTSUNNY   70  64  83 S10       29.97S HAZE
ARLINGTON      PTSUNNY   70  63  78 S12G22    29.96S
GRAND PRAIRIE  PTSUNNY   70  64  83 S9        29.98R
ADDISON        CLOUDY    66  63  88 S12       29.98R
MESQUITE       CLOUDY    68  64  88 SE7       29.98R
LANCASTER      PTSUNNY   67  64  87 S8        29.99R
$$

TXZ091>094-102>105-117-120-121-131>134-271700-
NORTH CENTRAL TEXAS

CITY           SKY/WX    TMP DP  RH WIND       PRES   REMARKS
SHRMAN/DENISON CLOUDY    56  55  98 E7        29.99R FOG
GAINESVILLE    FOG       60  59  97 SE8       29.98S VSB 1
BOWIE          CLOUDY    64  63  97 S7        29.96R
BRIDGEPORT     CLOUDY    66  62  84 S8        29.97R
DECATUR        CLOUDY    64  62  91 S12       29.96R
DENTON         CLOUDY    65  63  93 SE10      29.96R FOG
MCKINNEY       CLOUDY    62  62 100 SE8       29.98S FOG
BONHAM         CLOUDY    57  55  94 E7        29.99S FOG
GREENVILLE       N/A     64  61  88 SE9       30.00R FOG
ROCKWALL       CLOUDY    68  65  91 S10G18    29.98S
TERRELL        CLOUDY    69  64  84 S12       29.99R
WAXAHACHIE     PTSUNNY   67  66  95 S8        29.99R
GRANBURY       CLOUDY    68  64  86 SE7       29.97S FOG
$$

TXZ083>090-098>101-113>116-127>130-139>142-154-155-271700-
WESTERN NORTH TEXAS

CITY           SKY/WX    TMP DP  RH WIND       PRES   REMARKS
WICHITA FALLS  CLOUDY    60  57  89 SW10      29.95R FOG
WF-KICKAPOO    CLOUDY    60  58  94 SW7       29.96R
VERNON         PTSUNNY   49  46  88 W5        29.94F
ABILENE        CLOUDY    62  60  93 SW13      29.95R
ABILENE-DYESS  PTSUNNY   65  60  83 SW18      29.94R
GRAHAM         CLOUDY    66  64  94 S3        29.93S
BRECKENRIDGE   CLOUDY    68  64  84 S13       29.94R HAZE
CISCO          CLOUDY    63  63 100 S10       29.96R FOG
RANGER         CLOUDY    63  63 100 S6        29.97R FOG
MINERAL WELLS  CLOUDY    63  62  97 SE6       29.94S FOG
STEPHENVILLE   CLOUDY    65  63  94 S6        29.99R
COMANCHE       CLOUDY    62  62 100 SE5       29.97S FOG
BROWNWOOD      FOG       63  63 100 S3        29.97R VSB 3/4
COLEMAN        FOG       60  59  98 CALM      29.97R VSB 3/4
$$

TXZ143>147-156>162-174-175-271700-
CENTRAL TEXAS

CITY           SKY/WX    TMP DP  RH WIND       PRES   REMARKS
WACO           CLOUDY    69  65  86 SE10      29.97S
WACO-TSTC      CLOUDY    70  64  83 S12G17    29.98R FOG
WACO-MCGREGOR  PTSUNNY   71  66  84 S12       29.97S
HILLSBORO      CLOUDY    67  65  93 SE7       29.98S FOG
CORSICANA      CLOUDY    70  66  87 S13       30.00R
MEXIA          CLOUDY    69  65  90 SE8       29.99S
HEARNE         CLOUDY    71  68  88 SE14      29.99F
CAMERON        MOSUNNY   73  66  81 S13G18    29.97S
TEMPLE         PTSUNNY   71  66  84 S15       29.97R
KILLEEN        PTSUNNY   70  64  83 S13       29.96R
KILLEEN-SKYLRK CLOUDY    70  65  84 S14G20    29.96S
FORT HOOD      CLOUDY    67  63  87 S10       29.94S
GATESVILLE     CLOUDY    70  64  83 S8        29.99R
HAMILTON       CLOUDY    66  66 100 S12       29.98R
LAMPASAS       CLOUDY    71  67  87 S8        29.96R
$$

TXZ095>097-106>112-122>126-135>138-148>153-164>167-271700-
EAST TEXAS

CITY           SKY/WX    TMP DP  RH WIND       PRES   REMARKS
PARIS          CLOUDY    54  52  94 E14       30.03R
SULPHUR SPRNGS CLOUDY    62  61  97 SE6       30.03S FOG
MOUNT PLEASANT CLOUDY    58  58 100 SE6       30.05S
GILMER         FOG       56  56  99 E3        30.04R VSB 1/2
MINEOLA        CLOUDY    61  61 100 E5        30.01S FOG
TYLER          CLOUDY    69  65  86 S9        30.01S FOG
LONGVIEW       FOG       63  63 100 E5        30.03R VSB 1
MARSHALL       CLOUDY    57  56  94 CALM      30.07R
PALESTINE      CLOUDY    71  67  87 S10       30.03R
JACKSONVILLE   CLOUDY    68  65  90 S8G16     30.05R
HENDERSON      CLOUDY    68  65  88 S7        30.04S
CENTER         CLOUDY    72  69  92 S5        30.06R
NACOGDOCHES    CLOUDY    64  63  94 S8        30.02S
LUFKIN         CLOUDY    71  66  84 S8        30.04R
$$

SUPPLEMENTAL OBSERVATIONS (CENTRAL)

CITY           SKY/WX    TMP DP  RH WIND       PRES   REMARKS
DENISON DAM      N/A     54  52  94 E7          N/A
CADDO GRASSLND   N/A     55  52  88 SE5         N/A
PAT MAYSE LAKE   N/A     54  52  94 E8          N/A
GREENVILLE       N/A     63  59  88 SE7         N/A
CEDAR HILL       N/A     72  63  73 S10         N/A
ATHENS           N/A     70  64  83 S6          N/A
MCGREGOR         N/A     72  70  94 S12         N/A
TEMPLE           N/A     70  66  88 SE13        N/A
$$

SUPPLEMENTAL OBSERVATIONS (WEST)

CITY           SKY/WX    TMP DP  RH WIND       PRES   REMARKS
MILLERS CREEK    N/A     57  50  77 SW6         N/A
POSSUM KINGDOM   N/A     64  61  88 S6G14       N/A
LBJ GRASSLAND    N/A     66  63  88 S9          N/A
GRANBURY         N/A     66  61  82 SE10        N/A
HAMBY            N/A     63  59  88 SW12        N/A
IVIE RESERVOIR   N/A    N/A N/A N/A S1          N/A
COLORADO BEND    N/A     68  61  77 SW9G17      N/A
$$

SUPPLEMENTAL OBSERVATIONS (EAST)

CITY           SKY/WX    TMP DP  RH WIND       PRES   REMARKS
CLARKSVILLE      N/A     54  52  94 E8          N/A
TEXARKANA        N/A     57  55  94 E2          N/A
LINDEN           N/A     55  54  94 E5          N/A
CADDO LAKE       N/A    N/A N/A N/A E2          N/A
GILMER           N/A     57  55  94 E5          N/A
HENDERSON        N/A     70  64  83 S7          N/A
LUFKIN           N/A     72  64  78 MISG        N/A
N SABINE NF      N/A     70  64  83 MISG        N/A
S SABINE NF      N/A     70  64  83 S2          N/A
$$

SUPPLEMENTAL OBSERVATIONS ARE A COLLECTION OF AUTOMATED INSTRUMENTS
THAT ARE MAINTAINED BY A VARIETY OF FEDERAL AND STATE AGENCIES.
CERTAIN ELEMENTS...SUCH AS HUMIDITY VALUES AND SUSTAINED WIND
SPEEDS...MAY BE APPROXIMATED.





USA.gov is the U.S. government's official web portal to all federal, state and local government web resources and services.